When you browse on this site, cookies collect data to enhance your experience and personalize the content and advertising you see.
Visit our Privacy Policy to learn more. By continuing to use the site, you agree to this use of cookies and data.
  • En España
  • Lista de países
  • Para 7 días
  • Temperatura del agua
  • El tiempo en el mapa
  • Informadores
  • user-avatar
    Iniciar sesión

    Tiempo cada hora Makivs'ke

    Hoy, 14 Octubre, Lunes

    Tiempo Temperatura Precipitaciones Viento Presión Humedad
    00:00 +14°C° 0 mm 1 mps 760 mmHg 66%
    01:00 +13°C° 0 mm 1 mps 759 mmHg 66%
    02:00 +13°C° 0 mm 1 mps 760 mmHg 67%
    03:00 +13°C° 0 mm 1 mps 759 mmHg 68%
    04:00 +13°C° 0 mm 1 mps 759 mmHg 68%
    05:00 +13°C° 0 mm 1 mps 759 mmHg 68%
    06:00 +14°C° 0 mm 1 mps 759 mmHg 62%
    07:00 +16°C° 0 mm 1 mps 760 mmHg 56%
    08:00 +18°C° 0 mm 1 mps 760 mmHg 50%
    09:00 +20°C° 0 mm 1 mps 760 mmHg 43%
    10:00 +21°C° 0 mm 2 mps 759 mmHg 37%
    11:00 +23°C° 0 mm 2 mps 759 mmHg 30%
    12:00 +24°C° 0 mm 2 mps 759 mmHg 29%
    13:00 +24°C° 0 mm 2 mps 759 mmHg 28%
    14:00 +24°C° 0 mm 2 mps 759 mmHg 27%
    15:00 +21°C° 0 mm 2 mps 758 mmHg 35%
    16:00 +19°C° 0 mm 2 mps 758 mmHg 44%
    17:00 +17°C° 0 mm 2 mps 757 mmHg 52%
    18:00 +16°C° 0 mm 2 mps 758 mmHg 54%
    19:00 +16°C° 0 mm 2 mps 758 mmHg 56%
    20:00 +15°C° 0 mm 2 mps 758 mmHg 57%
    21:00 +15°C° 0 mm 2 mps 757 mmHg 56%
    22:00 +15°C° 0 mm 1 mps 757 mmHg 55%
    23:00 +15°C° 0 mm 1 mps 757 mmHg 54%

    Mañana, 15 Octubre, Martes

    Tiempo Temperatura Precipitaciones Viento Presión Humedad
    00:00 +15°C° 0 mm 1 mps 757 mmHg 55%
    01:00 +15°C° 0 mm 1 mps 757 mmHg 55%
    02:00 +14°C° 0 mm 1 mps 757 mmHg 56%
    03:00 +14°C° 0 mm 1 mps 756 mmHg 58%
    04:00 +14°C° 0 mm 2 mps 756 mmHg 61%
    05:00 +14°C° 0 mm 2 mps 756 mmHg 64%
    06:00 +15°C° 0 mm 2 mps 756 mmHg 60%
    07:00 +17°C° 0 mm 2 mps 756 mmHg 57%
    08:00 +18°C° 0 mm 2 mps 757 mmHg 54%
    09:00 +20°C° 0 mm 2 mps 757 mmHg 47%
    10:00 +22°C° 0 mm 3 mps 756 mmHg 41%
    11:00 +25°C° 0 mm 3 mps 756 mmHg 35%
    12:00 +25°C° 0 mm 3 mps 756 mmHg 36%
    13:00 +25°C° 0 mm 3 mps 756 mmHg 37%
    14:00 +25°C° 0 mm 4 mps 756 mmHg 38%
    15:00 +21°C° 0 mm 3 mps 755 mmHg 46%
    16:00 +19°C° 0 mm 3 mps 755 mmHg 54%
    17:00 +17°C° 0 mm 3 mps 755 mmHg 61%
    18:00 +17°C° 0 mm 2 mps 755 mmHg 63%
    19:00 +16°C° 0 mm 2 mps 755 mmHg 65%
    20:00 +15°C° 0 mm 2 mps 755 mmHg 67%
    21:00 +15°C° 0 mm 2 mps 755 mmHg 66%
    22:00 +15°C° 0 mm 2 mps 755 mmHg 64%
    23:00 +15°C° 0 mm 1 mps 755 mmHg 62%

    Pasado mañana, 16 Octubre, Miércoles

    Tiempo Temperatura Precipitaciones Viento Presión Humedad
    00:00 +15°C° 0 mm 2 mps 755 mmHg 63%
    01:00 +14°C° 0 mm 2 mps 755 mmHg 64%
    02:00 +14°C° 0 mm 2 mps 755 mmHg 65%
    03:00 +14°C° 0 mm 2 mps 755 mmHg 66%
    04:00 +14°C° 0 mm 2 mps 755 mmHg 68%
    05:00 +14°C° 0 mm 2 mps 755 mmHg 69%
    06:00 +16°C° 0 mm 2 mps 755 mmHg 64%
    07:00 +17°C° 0 mm 3 mps 755 mmHg 60%
    08:00 +19°C° 0 mm 3 mps 755 mmHg 55%
    09:00 +20°C° 0 mm 3 mps 755 mmHg 48%
    10:00 +22°C° 0 mm 3 mps 755 mmHg 41%
    11:00 +25°C° 0 mm 4 mps 755 mmHg 33%
    12:00 +25°C° 0 mm 4 mps 755 mmHg 35%
    13:00 +25°C° 0 mm 4 mps 754 mmHg 36%
    14:00 +25°C° 0 mm 4 mps 754 mmHg 37%
    15:00 +22°C° 0 mm 4 mps 754 mmHg 46%
    16:00 +19°C° 0 mm 3 mps 754 mmHg 55%
    17:00 +17°C° 0 mm 3 mps 754 mmHg 64%
    18:00 +17°C° 0 mm 3 mps 754 mmHg 66%
    19:00 +16°C° 0 mm 3 mps 754 mmHg 68%
    20:00 +14°C° 0 mm 3 mps 754 mmHg 70%
    21:00 +15°C° 0 mm 2 mps 754 mmHg 69%
    22:00 +15°C° 0 mm 2 mps 754 mmHg 68%
    23:00 +15°C° 0 mm 2 mps 754 mmHg 67%

    17 Octubre, Jueves

    Tiempo Temperatura Precipitaciones Viento Presión Humedad
    00:00 +15°C° 0 mm 2 mps 754 mmHg 66%
    01:00 +15°C° 0 mm 2 mps 754 mmHg 66%
    02:00 +15°C° 0 mm 2 mps 754 mmHg 66%
    03:00 +15°C° 0 mm 2 mps 754 mmHg 68%
    04:00 +15°C° 0 mm 2 mps 754 mmHg 70%
    05:00 +14°C° 0 mm 2 mps 754 mmHg 72%
    06:00 +16°C° 0 mm 3 mps 754 mmHg 68%
    07:00 +17°C° 0 mm 3 mps 754 mmHg 64%
    08:00 +18°C° 0 mm 3 mps 754 mmHg 60%
    09:00 +20°C° 0 mm 3 mps 754 mmHg 54%
    10:00 +21°C° 0 mm 3 mps 754 mmHg 47%
    11:00 +24°C° 0 mm 3 mps 754 mmHg 41%
    12:00 +24°C° 0 mm 3 mps 754 mmHg 44%
    13:00 +24°C° 0 mm 3 mps 754 mmHg 46%
    14:00 +22°C° 0 mm 3 mps 754 mmHg 49%
    15:00 +20°C° 0 mm 3 mps 753 mmHg 59%
    16:00 +18°C° 0 mm 3 mps 753 mmHg 69%
    17:00 +16°C° 0 mm 2 mps 753 mmHg 79%
    18:00 +16°C° 0 mm 2 mps 753 mmHg 81%
    19:00 +15°C° 0 mm 2 mps 753 mmHg 83%
    20:00 +14°C° 0 mm 2 mps 753 mmHg 86%
    21:00 +14°C° 0 mm 2 mps 753 mmHg 85%
    22:00 +14°C° 0 mm 2 mps 753 mmHg 85%
    23:00 +14°C° 0 mm 2 mps 753 mmHg 85%

    18 Octubre, Viernes

    Tiempo Temperatura Precipitaciones Viento Presión Humedad
    00:00 +14°C° 0 mm 2 mps 753 mmHg 84%
    01:00 +14°C° 0 mm 2 mps 753 mmHg 83%
    02:00 +14°C° 0 mm 2 mps 753 mmHg 83%
    03:00 +13°C° 0 mm 3 mps 753 mmHg 83%
    04:00 +13°C° 0 mm 3 mps 753 mmHg 84%
    05:00 +13°C° 0 mm 3 mps 753 mmHg 85%
    06:00 +14°C° 0 mm 3 mps 753 mmHg 80%
    07:00 +16°C° 0 mm 3 mps 754 mmHg 75%
    08:00 +18°C° 0 mm 3 mps 754 mmHg 70%
    09:00 +19°C° 0 mm 3 mps 754 mmHg 62%
    10:00 +20°C° 0 mm 3 mps 754 mmHg 55%
    11:00 +22°C° 0 mm 4 mps 755 mmHg 48%
    12:00 +22°C° 0 mm 4 mps 754 mmHg 48%
    13:00 +22°C° 0 mm 4 mps 754 mmHg 47%
    14:00 +22°C° 0 mm 4 mps 754 mmHg 47%
    15:00 +20°C° 0 mm 3 mps 754 mmHg 57%
    16:00 +18°C° 0 mm 3 mps 754 mmHg 66%
    17:00 +16°C° 0 mm 3 mps 754 mmHg 76%
    18:00 +14°C° 0 mm 3 mps 754 mmHg 76%
    19:00 +14°C° 0 mm 3 mps 754 mmHg 75%
    20:00 +14°C° 0 mm 3 mps 754 mmHg 75%
    21:00 +13°C° 0 mm 3 mps 754 mmHg 75%
    22:00 +13°C° 0 mm 3 mps 754 mmHg 75%
    23:00 +13°C° 0 mm 3 mps 754 mmHg 76%

    19 Octubre, Sábado

    Tiempo Temperatura Precipitaciones Viento Presión Humedad
    00:00 +13°C° 0 mm 3 mps 754 mmHg 77%
    01:00 +12°C° 0 mm 3 mps 754 mmHg 78%
    02:00 +12°C° 0 mm 3 mps 754 mmHg 80%
    03:00 +12°C° 0 mm 3 mps 754 mmHg 80%
    04:00 +12°C° 0 mm 3 mps 755 mmHg 81%
    05:00 +12°C° 0 mm 3 mps 755 mmHg 81%
    06:00 +13°C° 0 mm 3 mps 755 mmHg 76%
    07:00 +16°C° 0 mm 3 mps 755 mmHg 71%
    08:00 +17°C° 0 mm 4 mps 755 mmHg 65%
    09:00 +19°C° 0 mm 4 mps 755 mmHg 58%
    10:00 +20°C° 0 mm 5 mps 755 mmHg 50%
    11:00 +22°C° 0 mm 5 mps 756 mmHg 43%
    12:00 +21°C° 0 mm 5 mps 755 mmHg 44%
    13:00 +21°C° 0 mm 5 mps 755 mmHg 46%
    14:00 +21°C° 0 mm 5 mps 755 mmHg 47%
    15:00 +19°C° 0 mm 5 mps 755 mmHg 58%
    16:00 +17°C° 0 mm 4 mps 755 mmHg 68%
    17:00 +14°C° 0 mm 4 mps 755 mmHg 78%
    18:00 +13°C° 0 mm 4 mps 755 mmHg 81%
    19:00 +13°C° 0 mm 4 mps 755 mmHg 84%
    20:00 +13°C° 0 mm 4 mps 755 mmHg 87%
    21:00 +13°C° 0 mm 4 mps 755 mmHg 87%
    22:00 +12°C° 0 mm 3 mps 755 mmHg 87%
    23:00 +12°C° 0 mm 3 mps 755 mmHg 87%
    Mostrar más